Погода в Малокрасноярке

Россия / Новосибирская область     56°27′49″N   76°00′32″E
темп.,
°C
ветер,
м/с
пор.,
м/с
влажн.,
%
обл.,
%
осадки,
мм/ч
давл.,
гПа
погр.,
м
19 июня, сб
сб1901:00+7ссз61196100 4.4 1002670
04:00+6ссз61289100 0.0 1002800
07:00+6ссз61186100 0.0 1004943
10:00+7ссз61087100 0.1 1005972
13:00+10ссз71069100 0.1 10061323
16:00+10ссз7107399 0.2 10071275
19:00+11с6106132 0.3 10081458
22:00+9зсз227225 0.1 100818
20 июня, вс
вс2001:00+6з33786 0.1 100929
04:00+5з34835 0.0 100865
07:00+7зюз12775 0.0 100881
10:00+13ююз34625 0.0 1007498
13:00+17ююз675095 0.1 10042282
16:00+17ююз7952100 0.0 10022248
19:00+13ююз61175100 0.4 1001760
22:00+11ююв51196100 4.7 1000573
21 июня, пн
пн2101:00+10юв71595100 8.1 998748
04:00+9вюв71396100 3.2 998593
07:00+8в61297100 6.1 1000526
10:00+9св4993100 0.6 1003415
13:00+16всв71053100 0.6 10041935
16:00+14ссв61175100 0.8 1006490
19:00+14ссв7117686 1.8 1007786
22:00+11ссв5129083 1.2 1009482
22 июня, вт
вт2201:00+9с41196100 1.3 1010281
04:00+8ссз41195100 0.1 1010253
07:00+8ссз41093100 0.1 1011279
10:00+12с587199 0.0 1012668
13:00+16с4652100 0.0 10112105
16:00+15с455985 0.3 10121199
19:00+14с358191 1.9 1012682
22:00+11с2286100 0.9 101323
23 июня, ср
ср2301:00+8ссз229097 0.9 101331
04:00+7с349466 0.1 101361
07:00+8с259576 0.3 1014141
10:00+12с3480100 0.1 1014421
13:00+15с4558100 1.3 10141721
16:00+16ссв4551100 0.0 10131942
19:00+14ссв3676100 0.5 1014373
22:00+11с3486100 0.3 101592